Location: Monrovia
(34.7865°N, 86.7139°W)
Time: 00:50:46
(UTC+00:00)

SL-16 R/B - Pass Details

Date: 14 July 2020
Orbit: 839 x 850 km, 71.0° (Epoch: 12 August)

Event Time Altitude Azimuth Distance (km) Brightness Sun altitude
Exits shadow 03:51:36 23° 230° (SW) 1,713 3.7 -26.7°
Maximum altitude 03:54:53 50° 295° (WNW) 1,073 2.9 -27.0°
Drops below altitude 10° 04:00:23 10° 10° (N) 2,475 5.2 -27.6°
Sets 04:02:56 0° 16° (NNE) 3,415 6.0 -27.9°
